EW8599 Weather Reports


Display with metric or nautical units.
time (UTC)temp
F
wind
direction
speed
MPH
gust
MPH
rain 1hr
in
rain 24hr
in
rain mn
in
humidity
%
barometer
mb
20260504185316 74 327 0.0 0.0 0.00 0.00 0.00 34 995.4
20260504184954 74 73 0.0 0.0 0.00 0.00 0.00 33 995.3
20260504184812 75 182 0.0 0.0 0.00 0.00 0.00 33 995.4
20260504184453 75 122 0.0 0.0 0.00 0.00 0.00 32 995.3
20260504184308 75 305 0.0 0.0 0.00 0.00 0.00 32 995.4
20260504183952 75 137 0.0 0.0 0.00 0.00 0.00 33 995.4
20260504183804 75 49 0.0 0.0 0.00 0.00 0.00 32 995.4
20260504183456 75 351 0.0 0.0 0.00 0.00 0.00 33 995.3
20260504183301 75 291 0.0 0.0 0.00 0.00 0.00 35 995.4
20260504182952 75 25 0.0 0.0 0.00 0.00 0.00 36 995.5
20260504182759 75 240 0.0 0.0 0.00 0.00 0.00 35 995.4
20260504182453 75 234 0.0 0.0 0.00 0.00 0.00 33 995.5
20260504182255 75 161 0.0 0.0 0.00 0.00 0.00 34 995.4
20260504181952 75 168 0.0 0.0 0.00 0.00 0.00 34 995.5
20260504181753 75 42 0.0 0.0 0.00 0.00 0.00 35 995.4
20260504181452 75 31 0.0 0.0 0.00 0.00 0.00 34 995.6
20260504181250 75 288 0.0 0.0 0.00 0.00 0.00 33 995.4
20260504180952 75 118 0.0 0.0 0.00 0.00 0.00 34 995.4
20260504180749 76 212 0.0 0.0 0.00 0.00 0.00 33 995.9
20260504180452 76 137 0.0 0.0 0.00 0.00 0.00 36 995.6
20260504180247 76 55 0.0 0.0 0.00 0.00 0.00 33 995.9
20260504175953 75 5 0.0 0.0 0.00 0.00 0.00 37 995.7
20260504175745 75 311 0.0 0.0 0.00 0.00 0.00 38 995.9
20260504175452 75 258 0.0 0.0 0.00 0.00 0.00 36 995.7
20260504175241 75 281 0.0 0.0 0.00 0.00 0.00 35 995.9
20260504175233 75 280 0.0 0.0 0.00 0.00 0.00 35 995.7
20260504174739 75 294 0.0 0.0 0.00 0.00 0.00 35 995.9
20260504174449 75 84 0.0 0.0 0.00 0.00 0.00 35 995.7
20260504174237 75 261 0.0 0.0 0.00 0.00 0.00 38 995.9
20260504173946 75 5 0.0 0.0 0.00 0.00 0.00 37 995.8
20260504173733 74 348 0.0 0.0 0.00 0.00 0.00 40 995.9
20260504173446 74 226 0.0 0.0 0.00 0.00 0.00 35 995.9
20260504173230 74 319 0.0 0.0 0.00 0.00 0.00 36 996.2
20260504172946 74 315 0.0 0.0 0.00 0.00 0.00 36 996.0
20260504172727 74 355 0.0 0.0 0.00 0.00 0.00 38 996.2
20260504172443 74 22 0.0 0.0 0.00 0.00 0.00 38 996.0
20260504172224 74 280 0.0 0.0 0.00 0.00 0.00 38 996.2
20260504171938 73 355 0.0 0.0 0.00 0.00 0.00 42 995.9
20260504171720 73 238 0.0 0.0 0.00 0.00 0.00 37 996.2
20260504171436 73 251 0.0 0.0 0.00 0.00 0.00 35 996.2
20260504171217 73 280 0.0 0.0 0.00 0.00 0.00 38 996.2
20260504170944 73 319 0.0 0.0 0.00 0.00 0.00 36 996.2
20260504170714 73 170 0.0 0.0 0.00 0.00 0.00 37 996.2
20260504170449 73 303 0.0 0.0 0.00 0.00 0.00 36 996.2
20260504170211 73 346 0.0 0.0 0.00 0.00 0.00 36 996.2
20260504160437 68 167 0.0 0.0 0.00 0.00 0.00 43 996.7
20260504160214 68 166 0.0 0.0 0.00 0.00 0.00 43 996.7
20260504160129 68 164 0.0 0.0 0.00 0.00 0.00 43 996.9
20260504151057 66 165 0.0 0.0 0.00 0.00 0.00 46 997.2
20260504150936 65 90 0.0 0.0 0.00 0.00 0.00 44 997.2
20260504150554 65 146 0.0 0.0 0.00 0.00 0.00 42 997.2
20260504150431 65 74 0.0 0.0 0.00 0.00 0.00 42 997.2
20260504141020 61 123 0.0 0.0 0.00 0.00 0.00 48 997.9
20260504140910 60 199 0.0 0.0 0.00 0.00 0.00 48 997.8
20260504140517 60 18 0.0 0.0 0.00 0.00 0.00 48 997.9
20260504140408 60 98 0.0 0.0 0.00 0.00 0.00 48 997.8
20260504130441 59 96 0.0 0.0 0.00 0.00 0.00 48 998.6
20260504130403 58 157 0.0 0.0 0.00 0.00 0.00 48 998.5
20260504110351 44 157 0.0 0.0 0.00 0.00 0.00 75 998.7
20260504110328 44 157 0.0 0.0 0.00 0.00 0.00 76 998.6
20260504100331 41 196 0.0 0.0 0.00 0.00 0.00 82 998.7
20260504100246 41 196 0.0 0.0 0.00 0.00 0.00 82 998.9
20260504100114 41 196 0.0 0.0 0.00 0.00 0.00 82 998.7
20260504081820 44 196 0.0 0.0 0.00 0.00 0.00 74 999.1
20260504081639 44 196 0.0 0.0 0.00 0.00 0.00 73 999.2
20260504081548 44 196 0.0 0.0 0.00 0.00 0.00 73 999.1
20260504081135 44 196 0.0 0.0 0.00 0.00 0.00 73 999.2
20260504080816 44 196 0.0 0.0 0.00 0.00 0.00 73 999.0
20260504080632 44 196 0.0 0.0 0.00 0.00 0.00 73 999.2
20260504080315 44 196 0.0 0.0 0.00 0.00 0.00 73 999.0
20260504080128 44 196 0.0 0.0 0.00 0.00 0.00 73 999.2
20260504070311 43 140 0.0 0.0 0.00 0.00 0.00 75 998.9
20260504050752 44 217 0.0 0.0 0.00 0.00 0.00 74 999.1
20260504050445 44 217 0.0 0.0 0.00 0.00 0.00 74 999.2
20260504050250 44 217 0.0 0.0 0.00 0.00 0.00 74 999.2
20260504045942 44 217 0.0 0.0 0.00 0.00 0.00 73 999.2
20260504045746 44 217 0.0 0.0 0.00 0.00 0.00 74 999.2
20260504045437 45 217 0.0 0.0 0.00 0.00 0.00 73 999.2
20260504045246 45 217 0.0 0.0 0.00 0.00 0.00 73 999.3
20260504045017 45 217 0.0 0.0 0.00 0.00 0.00 73 999.3
20260504044934 45 217 0.0 0.0 0.00 0.00 0.00 73 999.7
20260504044432 46 217 0.0 0.0 0.00 0.00 0.00 73 999.2
20260504044242 46 217 0.0 0.0 0.00 0.00 0.00 72 999.3
20260504043929 46 217 0.0 0.0 0.00 0.00 0.00 72 999.2
20260504043740 46 217 0.0 0.0 0.00 0.00 0.00 72 999.3
20260504043426 46 217 0.0 0.0 0.00 0.00 0.00 72 999.2
20260504043239 46 217 0.0 0.0 0.00 0.00 0.00 72 999.2
20260504042923 47 217 0.0 0.0 0.00 0.00 0.00 71 999.2
20260504042735 47 217 0.0 0.0 0.00 0.00 0.00 71 999.3
20260504042420 47 217 0.0 0.0 0.00 0.00 0.00 71 999.2
20260504042234 47 217 0.0 0.0 0.00 0.00 0.00 71 999.2
20260504041916 47 217 0.0 0.0 0.00 0.00 0.00 71 999.2
20260504041733 47 217 0.0 0.0 0.00 0.00 0.00 71 999.3
20260504041412 48 217 0.0 0.0 0.00 0.00 0.00 71 999.2
20260504041225 48 217 0.0 0.0 0.00 0.00 0.00 71 999.3
20260504040908 48 217 0.0 0.0 0.00 0.00 0.00 70 999.2
20260504040718 48 217 0.0 0.0 0.00 0.00 0.00 70 999.3
20260504040406 48 217 0.0 0.0 0.00 0.00 0.00 70 999.2
20260504040212 48 217 0.0 0.0 0.00 0.00 0.00 70 999.3
20260504035902 48 217 0.0 0.0 0.00 0.00 0.00 70 999.2
20260504035713 48 217 0.0 0.0 0.00 0.00 0.00 70 999.3
20260504035400 49 217 0.0 0.0 0.00 0.00 0.00 70 999.2
20260504035210 49 217 0.0 0.0 0.00 0.00 0.00 69 999.3
20260504034856 49 217 0.0 0.0 0.00 0.00 0.00 69 999.2
20260504034709 49 218 0.0 0.0 0.00 0.00 0.00 69 999.3
20260504034353 49 218 0.0 0.0 0.00 0.00 0.00 68 999.2
20260504034212 49 218 0.0 0.0 0.00 0.00 0.00 68 999.3
20260504033850 49 218 0.0 0.0 0.00 0.00 0.00 68 999.2
20260504033708 49 218 0.0 0.0 0.00 0.00 0.00 68 999.3
20260504033443 50 218 0.0 0.0 0.00 0.00 0.00 68 999.4
20260504033349 50 218 0.0 0.0 0.00 0.00 0.00 68 999.7
20260504032944 50 218 0.0 0.0 0.00 0.00 0.00 67 999.4
20260504032845 50 218 0.0 0.0 0.00 0.00 0.00 67 999.7
20260504032342 50 218 0.0 0.0 0.00 0.00 0.00 67 999.7
20260504032210 50 218 0.0 0.0 0.00 0.00 0.00 67 999.5
20260504031838 50 218 0.0 0.0 0.00 0.00 0.00 67 999.7
20260504031705 50 218 0.0 0.0 0.00 0.00 0.00 67 999.5
20260504031336 51 218 0.0 0.0 0.00 0.00 0.00 66 999.7
20260504031206 51 218 0.0 0.0 0.00 0.00 0.00 66 999.5
20260504030933 51 218 0.0 0.0 0.00 0.00 0.00 65 999.5
20260504030832 51 218 0.0 0.0 0.00 0.00 0.00 65 999.7
20260504030330 51 218 0.0 0.0 0.00 0.00 0.00 64 999.7
20260504030205 51 218 0.0 0.0 0.00 0.00 0.00 65 999.6
20260504025826 51 218 0.0 0.0 0.00 0.00 0.00 64 999.7
20260504025706 51 218 0.0 0.0 0.00 0.00 0.00 64 999.6
20260504025323 51 218 0.0 0.0 0.00 0.00 0.00 63 999.7
20260504025205 51 218 0.0 0.0 0.00 0.00 0.00 63 999.6
20260504024819 51 218 0.0 0.0 0.00 0.00 0.00 61 999.7
20260504024706 51 218 0.0 0.0 0.00 0.00 0.00 61 999.6
20260504024316 52 218 0.0 0.0 0.00 0.00 0.00 61 1000.0
20260504024205 52 218 0.0 0.0 0.00 0.00 0.00 61 999.7
20260504023812 52 218 0.0 0.0 0.00 0.00 0.00 60 1000.0
20260504023703 52 218 0.0 0.0 0.00 0.00 0.00 60 999.6
20260504023437 52 218 0.0 0.0 0.00 0.00 0.00 59 999.6
20260504023309 52 218 0.0 0.0 0.00 0.00 0.00 59 999.7
20260504022805 52 218 0.0 0.0 0.00 0.00 0.00 60 999.7
20260504022658 52 218 0.0 0.0 0.00 0.00 0.00 60 999.6
20260504022304 53 218 0.0 0.0 0.00 0.00 0.00 59 999.7
20260504022151 53 218 0.0 0.0 0.00 0.00 0.00 59 999.6
20260504021925 53 218 0.0 0.0 0.00 0.00 0.00 58 999.6
20260504021758 53 218 0.0 0.0 0.00 0.00 0.00 58 999.7
20260504021256 53 218 0.0 0.0 0.00 0.00 0.00 57 1000.0
20260504021150 53 218 0.0 0.0 0.00 0.00 0.00 57 999.7
20260504020753 53 218 0.0 0.0 0.00 0.00 0.00 55 1000.0
20260504020650 53 218 0.0 0.0 0.00 0.00 0.00 55 999.7
20260504020249 54 218 0.0 0.0 0.00 0.00 0.00 55 1000.0
20260504020150 54 218 0.0 0.0 0.00 0.00 0.00 55 999.7
20260504015913 54 218 0.0 0.0 0.00 0.00 0.00 53 999.7
20260504015745 54 218 0.0 0.0 0.00 0.00 0.00 53 1000.0
20260504015242 54 218 0.0 0.0 0.00 0.00 0.00 50 1000.0
20260504015143 54 218 0.0 0.0 0.00 0.00 0.00 50 999.7
20260504014737 54 175 0.0 0.0 0.00 0.00 0.00 51 1000.0
20260504014643 54 175 0.0 0.0 0.00 0.00 0.00 51 999.7
20260504014234 54 175 0.0 0.0 0.00 0.00 0.00 47 1000.0
20260504014142 54 175 0.0 0.0 0.00 0.00 0.00 47 999.7
20260504013732 54 247 0.0 0.0 0.00 0.00 0.00 48 1000.0
20260504013642 54 247 0.0 0.0 0.00 0.00 0.00 48 999.8
20260504013230 54 244 0.0 0.0 0.00 0.00 0.00 49 1000.0
20260504013139 54 244 0.0 0.0 0.00 0.00 0.00 47 999.9
20260504012726 54 244 0.0 0.0 0.00 0.00 0.00 48 1000.0
20260504012637 54 244 0.0 0.0 0.00 0.00 0.00 49 999.9
20260504012224 54 191 0.0 0.0 0.00 0.00 0.00 49 1000.0
20260504012145 54 191 0.0 0.0 0.00 0.00 0.00 49 999.9
20260504011721 54 292 0.0 0.0 0.00 0.00 0.00 48 1000.4
20260504011638 54 292 0.0 0.0 0.00 0.00 0.00 48 1000.0
20260504011217 54 100 0.0 0.0 0.00 0.00 0.00 47 1000.0
20260504011140 54 102 0.0 0.0 0.00 0.00 0.00 47 999.8
20260504010911 54 279 0.0 0.0 0.00 0.00 0.00 47 999.8
20260504010713 54 279 0.0 0.0 0.00 0.00 0.00 47 1000.0
20260504010210 54 224 0.0 0.0 0.00 0.00 0.00 50 999.7
20260504010135 54 224 0.0 0.0 0.00 0.00 0.00 50 999.6
20260504005706 55 258 0.0 0.0 0.00 0.00 0.00 47 999.7
20260504005633 55 258 0.0 0.0 0.00 0.00 0.00 47 999.6
20260504005203 55 260 0.0 0.0 0.00 0.00 0.00 48 999.7
20260504005131 55 260 0.0 0.0 0.00 0.00 0.00 48 999.4
20260504004701 55 264 0.0 0.0 0.00 0.00 0.00 47 999.7
20260504004631 55 260 0.0 0.0 0.00 0.00 0.00 47 999.5
20260504004157 55 315 0.0 0.0 0.00 0.00 0.00 48 999.7
20260504004131 55 315 0.0 0.0 0.00 0.00 0.00 48 999.5
20260504003654 55 286 0.0 0.0 0.00 0.00 0.00 48 999.7
20260504003629 55 296 0.0 0.0 0.00 0.00 0.00 46 999.5
20260504003151 55 246 0.0 0.0 0.00 0.00 0.00 46 999.7
20260504003122 55 240 0.0 0.0 0.00 0.00 0.00 45 999.4
20260504002647 55 83 0.0 0.0 0.00 0.00 0.00 49 999.7
20260504002619 55 83 0.0 0.0 0.00 0.00 0.00 51 999.4
20260504002405 55 82 0.0 0.0 0.00 0.00 0.00 48 999.3
20260504002145 55 82 0.0 0.0 0.00 0.00 0.00 49 999.2
20260504001643 55 319 0.0 0.0 0.00 0.00 0.00 45 999.7
20260504001618 55 53 0.0 0.0 0.00 0.00 0.00 45 999.4
20260504001138 55 332 0.0 0.0 0.00 0.00 0.00 47 999.2
20260504001116 55 141 0.0 0.0 0.00 0.00 0.00 47 999.3
20260504000636 55 148 0.0 0.0 0.00 0.00 0.00 48 999.2
20260504000617 55 50 0.0 0.0 0.00 0.00 0.00 48 999.3
20260504000133 55 278 0.0 0.0 0.00 0.00 0.00 47 999.2
20260504000117 55 278 0.0 0.0 0.00 0.00 0.00 47 999.3
20260503235631 55 305 0.0 0.0 0.00 0.00 0.00 46 999.2
20260503235617 55 305 0.0 0.0 0.00 0.00 0.00 46 999.3
20260503235128 56 174 0.0 0.0 0.00 0.00 0.00 48 999.2
20260503235113 56 303 0.0 0.0 0.00 0.00 0.00 48 999.2
20260503234626 56 36 0.0 0.0 0.00 0.00 0.00 47 999.2
20260503234612 56 36 0.0 0.0 0.00 0.00 0.00 47 999.2
20260503234124 56 273 0.0 0.0 0.00 0.00 0.00 46 999.2
20260503234112 56 315 0.0 0.0 0.00 0.00 0.00 45 999.2
20260503233844 56 297 0.0 0.0 0.00 0.00 0.00 46 999.2
20260503233621 56 306 0.0 0.0 0.00 0.00 0.00 45 999.2
20260503233116 56 53 0.0 0.0 0.00 0.00 0.00 45 999.2
20260503233109 56 57 0.0 0.0 0.00 0.00 0.00 45 999.0
20260503232613 56 98 0.0 0.0 0.00 0.00 0.00 44 999.2
20260503232606 56 267 0.0 0.0 0.00 0.00 0.00 44 999.0
20260503232350 56 0 0.0 0.0 0.00 0.00 0.00 47 999.0
20260503232110 57 311 0.0 0.0 0.00 0.00 0.00 48 999.2
20260503231610 57 340 0.0 0.0 0.00 0.00 0.00 49 998.8
20260503231105 57 199 0.0 0.0 0.00 0.00 0.00 49 998.9
20260503230620 57 199 0.0 0.0 0.00 0.00 0.00 47 998.7
20260503230602 57 199 0.0 0.0 0.00 0.00 0.00 47 998.9
20260503230105 58 200 0.0 0.0 0.00 0.00 0.00 44 998.6
20260503230059 58 200 0.0 0.0 0.00 0.00 0.00 43 998.6
20260503225611 58 355 0.0 0.0 0.00 0.00 0.00 45 998.7
20260503225556 58 355 0.0 0.0 0.00 0.00 0.00 45 998.6
20260503225106 58 215 0.0 0.0 0.00 0.00 0.00 41 998.6
20260503225051 58 215 0.0 0.0 0.00 0.00 0.00 41 998.6
20260503224601 58 215 0.0 0.0 0.00 0.00 0.00 41 998.6
20260503224549 58 313 0.0 0.0 0.00 0.00 0.00 40 998.6
20260503224059 58 286 0.0 0.0 0.00 0.00 0.00 42 998.7
20260503224046 58 288 0.0 0.0 0.00 0.00 0.00 44 998.9
20260503223557 58 304 0.0 0.0 0.00 0.00 0.00 42 998.7
20260503223544 59 304 0.0 0.0 0.00 0.00 0.00 43 998.9
20260503223057 58 317 0.0 0.0 0.00 0.00 0.00 40 998.7
20260503223039 59 317 0.0 0.0 0.00 0.00 0.00 40 998.9
20260503222555 58 323 0.0 0.0 0.00 0.00 0.00 43 998.7
20260503222538 58 323 0.0 0.0 0.00 0.00 0.00 41 998.9
20260503222055 58 346 0.0 0.0 0.00 0.00 0.00 46 998.7
20260503222035 58 17 0.0 0.0 0.00 0.00 0.00 46 998.9
20260503221559 58 319 0.0 0.0 0.00 0.00 0.00 45 998.7
20260503221533 58 320 0.0 0.0 0.00 0.00 0.00 45 998.9
20260503221336 58 318 0.0 0.0 0.00 0.00 0.00 42 998.7
20260503221031 58 258 0.0 0.0 0.00 0.00 0.00 42 998.9
20260503220555 58 291 0.0 0.0 0.00 0.00 0.00 42 998.8
20260503220526 58 20 0.0 0.0 0.00 0.00 0.00 41 998.9
20260503220340 58 24 0.0 0.0 0.00 0.00 0.00 43 998.8
20260503220024 58 24 0.0 0.0 0.00 0.00 0.00 42 998.9
20260503215559 58 286 0.0 0.0 0.00 0.00 0.00 43 998.8
20260503215521 58 286 0.0 0.0 0.00 0.00 0.00 41 998.9
20260503215054 58 296 0.0 0.0 0.00 0.00 0.00 41 998.8
20260503215018 58 296 0.0 0.0 0.00 0.00 0.00 43 998.9
20260503214555 58 224 0.0 0.0 0.00 0.00 0.00 41 998.8
20260503214516 58 224 0.0 0.0 0.00 0.00 0.00 42 998.9
20260503214055 58 313 0.0 0.0 0.00 0.00 0.00 41 998.9
20260503214012 59 313 0.0 0.0 0.00 0.00 0.00 43 998.9
20260503213552 59 69 0.0 0.0 0.00 0.00 0.00 40 998.8
20260503213511 59 69 0.0 0.0 0.00 0.00 0.00 42 998.9
20260503213341 59 325 0.0 0.0 0.00 0.00 0.00 41 998.7
20260503213007 59 335 0.0 0.0 0.00 0.00 0.00 43 998.9
20260503212559 58 317 0.0 0.0 0.00 0.00 0.00 40 998.8
20260503212504 59 325 0.0 0.0 0.00 0.00 0.00 43 998.9
20260503212057 58 44 0.0 0.0 0.00 0.00 0.00 44 998.8
20260503212002 58 262 0.0 0.0 0.00 0.00 0.00 42 998.9
20260503211551 58 149 0.0 0.0 0.00 0.00 0.00 41 998.8
20260503211459 58 147 0.0 0.0 0.00 0.00 0.00 42 998.9
20260503211043 58 188 0.0 0.0 0.00 0.00 0.00 42 998.9
20260503210954 58 188 0.0 0.0 0.00 0.00 0.00 43 998.9
20260503210543 58 31 0.0 0.0 0.00 0.00 0.00 44 998.9
20260503210451 58 45 0.0 0.0 0.00 0.00 0.00 44 998.9
20260503210323 58 219 0.0 0.0 0.00 0.00 0.00 44 998.9
20260503205946 58 220 0.0 0.0 0.00 0.00 0.00 43 999.2
20260503205540 58 273 0.0 0.0 0.00 0.00 0.00 44 999.0
20260503205443 58 77 0.0 0.0 0.00 0.00 0.00 44 998.9
20260503205042 58 287 0.0 0.0 0.00 0.00 0.00 43 999.0
20260503204939 58 136 0.0 0.0 0.00 0.00 0.00 43 999.2
20260503204541 58 248 0.0 0.0 0.00 0.00 0.00 44 999.0
20260503204436 57 248 0.0 0.0 0.00 0.00 0.00 43 999.2
20260503204041 57 271 0.0 0.0 0.00 0.00 0.00 43 999.1
20260503203933 57 263 0.0 0.0 0.00 0.00 0.00 44 999.2
20260503203541 57 56 0.0 0.0 0.00 0.00 0.00 42 999.1
20260503203431 57 296 0.0 0.0 0.00 0.00 0.00 42 999.2
20260503203055 57 313 0.0 0.0 0.00 0.00 0.00 43 999.2
20260503203049 57 67 0.0 0.0 0.00 0.00 0.00 43 999.1
20260503202927 57 209 0.0 0.0 0.00 0.00 0.00 43 999.2
20260503202426 57 312 0.0 0.0 0.00 0.00 0.00 43 999.2
20260503202040 57 105 0.0 0.0 0.00 0.00 0.00 46 999.3
20260503201924 57 92 0.0 0.0 0.00 0.00 0.00 45 999.2
20260503201536 56 284 0.0 0.0 0.00 0.00 0.00 43 999.3
20260503201421 57 315 0.0 0.0 0.00 0.00 0.00 46 999.7
20260503201038 56 251 0.0 0.0 0.00 0.00 0.00 42 999.5
20260503200918 56 300 0.0 0.0 0.00 0.00 0.00 43 999.7
20260503200537 56 19 0.0 0.0 0.00 0.00 0.00 44 999.6
20260503200414 57 48 0.0 0.0 0.00 0.00 0.00 44 999.7
20260503200035 57 5 0.0 0.0 0.00 0.00 0.00 42 999.7
20260503195911 57 277 0.0 0.0 0.00 0.00 0.00 42 1000.0
20260503195534 57 284 0.0 0.0 0.00 0.00 0.00 43 999.6
20260503195409 57 264 0.0 0.0 0.00 0.00 0.00 41 999.7
20260503195322 57 307 0.0 0.0 0.00 0.00 0.00 41 999.7
20260503194905 57 267 0.0 0.0 0.00 0.00 0.00 41 1000.0
20260503194816 57 308 0.0 0.0 0.00 0.00 0.00 41 999.7
20260503194402 57 265 0.0 0.0 0.00 0.00 0.00 42 1000.0
20260503194033 58 311 0.0 0.0 0.00 0.00 0.00 41 999.8
20260503193858 58 263 0.0 0.0 0.00 0.00 0.00 41 1000.0
20260503193533 58 242 0.0 0.0 0.00 0.00 0.00 42 999.8
20260503193353 58 295 0.0 0.0 0.00 0.00 0.00 40 1000.0
20260503193033 58 18 0.0 0.0 0.00 0.00 0.00 40 999.8
20260503192849 59 98 0.0 0.0 0.00 0.00 0.00 40 1000.0
20260503192534 59 299 0.0 0.0 0.00 0.00 0.00 40 999.7
20260503192345 59 292 0.0 0.0 0.00 0.00 0.00 41 1000.0
20260503192032 59 5 0.0 0.0 0.00 0.00 0.00 40 999.7
20260503191841 59 257 0.0 0.0 0.00 0.00 0.00 40 1000.0
20260503191531 59 289 0.0 0.0 0.00 0.00 0.00 39 999.8
20260503191339 59 232 0.0 0.0 0.00 0.00 0.00 38 1000.0
20260503191030 58 275 0.0 0.0 0.00 0.00 0.00 40 999.8
20260503190835 58 23 0.0 0.0 0.00 0.00 0.00 43 1000.0
20260503190531 58 327 0.0 0.0 0.00 0.00 0.00 46 999.8
20260503190332 58 304 0.0 0.0 0.00 0.00 0.00 41 1000.0
20260503190312 58 55 0.0 0.0 0.00 0.00 0.00 39 999.9
20260503185829 58 241 0.0 0.0 0.00 0.00 0.00 39 1000.0
20260503185530 58 311 0.0 0.0 0.00 0.00 0.00 38 999.8